Dutch Harbor, AK

9:44 AM AKST on February 27, 2017 (GMT -0900)
Unalaska

Weather History for PADU - July, 2013

Change the Weather History Date:

Saturday, July 20, 2013

  Actual Average Record
Temperature  
Mean Temperature 62 °F -  
Max Temperature 70 °F 57 °F 70 °F (2013)
Min Temperature 53 °F 45 °F 37 °F (1992)
Degree Days  
Heating Degree Days 4    
Growing Degree Days 12 (Base 50)    
Moisture  
Dew Point 53 °F    
Average Humidity 78    
Maximum Humidity 89    
Minimum Humidity 64    
Precipitation  
Precipitation 0.00 in - - ()
Sea Level Pressure  
Sea Level Pressure 30.41 in    
Wind  
Wind Speed 9 mph (SSE)    
Max Wind Speed 15 mph    
Max Gust Speed 20 mph    
Visibility 10 miles    
Events Rain    
Averages and records for this station are not official NWS values.
T = Trace of Precipitation, MM = Missing Value Source: NWS Daily Summary

Daily Weather History Graph

Daily Weather History Graph

Search for Another Location

Airport or City:

Trip Planner

Search our weather history database for the weather conditions in past years. The results will help you decide how hot, cold, wet, or windy it might be!

Date:

Astronomy

Jul. 20, 2013 Rise Set
Actual Time 7:01 AM AKDT 11:22 PM AKDT
Civil Twilight 6:13 AM AKDT 12:10 AM AKDT
Nautical Twilight 5:00 AM AKDT 1:22 AM AKDT
Astronomical Twilight 3:44 AM AKDT 2:40 AM AKDT
Moon 9:34 PM AKDT (7/20) 4:56 AM AKDT (7/20)
Length of Visible Light 17h 56m
Length of Day
16h 20m
Waxing Gibbous, 94% of the Moon is Illuminated
Jul 20
Waxing Gibbous
Jul 22
Full
Jul 29
Last Quarter
Aug 6
New
Aug 14
First Quarter

Hourly Weather History & Observations

Time (AKDT) Temp. Dew Point Humidity Pressure Visibility Wind Dir Wind Speed Gust Speed Precip Events Conditions
12:56 AM 61.0 °F 52.0 °F 72% 30.48 in 10.0 mi South 8.1 mph - N/A   Clear
1:56 AM 61.0 °F 52.0 °F 72% 30.48 in 10.0 mi South 12.7 mph 17.3 mph N/A   Clear
2:56 AM 59.0 °F 52.0 °F 78% 30.48 in 10.0 mi SSE 11.5 mph - N/A   Clear
3:29 AM 59.0 °F 51.8 °F 77% 30.46 in 10.0 mi SSE 10.4 mph - N/A   Mostly Cloudy
3:56 AM 57.9 °F 52.0 °F 81% 30.47 in 10.0 mi SSE 10.4 mph 16.1 mph N/A   Mostly Cloudy
4:11 AM 57.2 °F 51.8 °F 82% 30.45 in 10.0 mi SSE 11.5 mph - N/A   Partly Cloudy
4:56 AM 57.9 °F 52.0 °F 81% 30.46 in 10.0 mi South 10.4 mph - N/A   Partly Cloudy
5:11 AM 57.2 °F 51.8 °F 82% 30.43 in 10.0 mi SSE 11.5 mph - N/A   Mostly Cloudy
5:56 AM 57.9 °F 53.1 °F 84% 30.45 in 10.0 mi SSE 13.8 mph 18.4 mph N/A Rain Light Rain
6:29 AM 57.2 °F 53.6 °F 88% 30.43 in 10.0 mi South 10.4 mph - N/A Rain Light Rain
6:56 AM 59.0 °F 53.1 °F 81% 30.43 in 10.0 mi South 11.5 mph - N/A   Overcast
6:59 AM 59.0 °F 53.6 °F 82% 30.42 in 10.0 mi South 15.0 mph 19.6 mph N/A   Overcast
7:14 AM 57.2 °F 53.6 °F 88% 30.41 in 10.0 mi SSE 11.5 mph - N/A   Mostly Cloudy
7:56 AM 57.9 °F 52.0 °F 81% 30.42 in 10.0 mi SE 15.0 mph 19.6 mph N/A   Mostly Cloudy
8:56 AM 60.1 °F 53.1 °F 78% 30.41 in 10.0 mi South 8.1 mph - N/A   Overcast
9:10 AM 60.8 °F 53.6 °F 77% 30.39 in 10.0 mi South 6.9 mph - N/A   Overcast
9:56 AM 61.0 °F 54.0 °F 78% 30.40 in 10.0 mi SSE 11.5 mph 18.4 mph N/A   Overcast
10:11 AM 60.8 °F 53.6 °F 77% 30.37 in 10.0 mi SSE 11.5 mph 18.4 mph N/A   Overcast
10:56 AM 61.0 °F 55.0 °F 81% 30.39 in 10.0 mi SSE 8.1 mph - N/A   Overcast
11:56 AM 63.0 °F 55.0 °F 75% 30.38 in 10.0 mi SSE 12.7 mph - N/A   Mostly Cloudy
12:56 PM 64.9 °F 55.9 °F 73% 30.38 in 10.0 mi SE 10.4 mph - N/A   Mostly Cloudy
1:17 PM 64.4 °F 55.4 °F 73% 30.36 in 9.0 mi SSE 11.5 mph - N/A   Overcast
1:53 PM 66.2 °F 55.4 °F 68% 30.36 in 10.0 mi East 5.8 mph - N/A   Overcast
1:56 PM 66.9 °F 55.9 °F 68% 30.38 in 10.0 mi East 8.1 mph - N/A   Overcast
2:25 PM 69.8 °F 57.2 °F 64% 30.35 in 10.0 mi East 4.6 mph - N/A   Mostly Cloudy
2:56 PM 69.1 °F 57.0 °F 65% 30.38 in 10.0 mi Variable 4.6 mph - N/A   Mostly Cloudy
3:19 PM 66.2 °F 57.2 °F 73% 30.35 in 9.0 mi Calm Calm - N/A   Mostly Cloudy
3:56 PM 64.9 °F 55.9 °F 73% 30.37 in 9.0 mi East 5.8 mph - N/A   Mostly Cloudy
4:56 PM 61.0 °F 54.0 °F 78% 30.38 in 10.0 mi ESE 4.6 mph - N/A   Mostly Cloudy
5:56 PM 60.1 °F 54.0 °F 80% 30.38 in 10.0 mi SSE 5.8 mph - N/A   Mostly Cloudy
6:56 PM 57.0 °F 51.1 °F 81% 30.38 in 10.0 mi ESE 5.8 mph - N/A   Mostly Cloudy
7:56 PM 59.0 °F 52.0 °F 78% 30.38 in 10.0 mi WSW 4.6 mph - N/A   Mostly Cloudy
8:56 PM 57.9 °F 51.1 °F 78% 30.38 in 10.0 mi NNW 10.4 mph - N/A   Scattered Clouds
9:56 PM 57.0 °F 51.1 °F 81% 30.39 in 10.0 mi North 4.6 mph - N/A   Scattered Clouds
10:56 PM 54.0 °F 50.0 °F 86% 30.40 in 10.0 mi ENE 4.6 mph - N/A   Clear
11:56 PM 53.1 °F 50.0 °F 89% 30.41 in 10.0 mi Calm Calm - N/A   Clear